Вернуться в каталог

ONEWEB-0271

АктивенСвязьPO
NORAD 48989·PAYLOAD·🇬🇧 United Kingdom

Запущен Jul 1, 2021 с Vostochny Cosmodrome

Loading…

Ближайшие Пролёты (ближайшие 24 часа)

TLE

СвежийSource: CelesTrak SupGP

Эпоха: Sep 14, 2026, 15:02 UTC

1 48989C 21060Y   26257.62689074  .00000393  00000+0  10298-2 0  2574
2 48989  87.9156 211.0129 0002151  73.3586 322.8474 13.16594623    14

Отслеживайте ONEWEB-0271 в реальном времени с AllMySat

Download on the App Store